Flag for Norway Weather past 2 weeks in Bodø, Norway

Now
32 °F

Sunny.


Feels Like: 21 °F
Forecast: 35 / 38 °F
Wind: 16 mph from East

Location: Bodo Vi

Current Time: Mar 4, 2015 at 12:17:16 PM

Latest Report: Mar 4, 2015 at 11:20 AM


Visibility: 10 mi

Pressure: 29.71 "Hg

Humidity: 69%

Dew point: 23 °F

Location of BodøLocation

Historic Weather in Bodø — Graph

°F

Bodø temperature yesterday

Maximum temperature yesterday: 39 °F (at 1:20 PM)
Minimum temperature yesterday: 32 °F (at 10:20 PM)
Average temperature yesterday: 36 °F

Past Weeks' High & Low Weather Summary

 TemperatureHumidityPressure
High45 °F (Feb 19, 8:50 AM)100% (Feb 17, 9:50 PM)29.74 "Hg (Feb 17, 9:50 PM)
Low28 °F (Feb 22, 8:50 PM)49% (Feb 28, 1:50 PM)28.82 "Hg (Mar 1, 7:50 PM)
Average37 °F75%29.24 "Hg
* Reported Feb 17 10:20 AM — Mar 4 10:50 AM, Bodø, Weather by CustomWeather, © 2015

Note: Actual official high and low records may vary slightly from our data, if they occured in-between our weather recording intervals... More about our weather records

Advertising

Bodø weather history for previous 24 hours

 ConditionsComfort  
Time TempWeatherWind HumidityBarometerVisibility
10:50 AM
Wed, Mar 4
32 °FSunny.16 mph69%29.71 "Hg10 mi
10:20 AM30 °FSunny.16 mph75%29.71 "Hg10 mi
9:50 AM30 °FSunny.15 mph75%29.68 "Hg10 mi
8:50 AM30 °FSunny.17 mph69%29.68 "Hg10 mi
8:20 AM30 °FSunny.16 mph69%29.65 "Hg10 mi
7:50 AM28 °FSunny.15 mph80%29.65 "Hg10 mi
7:20 AM28 °FSunny.16 mph80%29.65 "Hg10 mi
6:50 AM28 °FClear.15 mph80%29.65 "Hg10 mi
6:20 AM28 °FClear.15 mph80%29.62 "Hg10 mi
5:50 AM28 °FClear.16 mph80%29.62 "Hg10 mi
5:20 AM30 °FClear.15 mph75%29.62 "Hg10 mi
4:50 AM30 °FClear.15 mph80%29.62 "Hg10 mi
3:50 AM30 °FClear.15 mph80%29.59 "Hg10 mi
2:50 AM30 °FClear.15 mph75%29.59 "Hg10 mi
1:50 AM30 °FClear.15 mph80%29.59 "Hg10 mi
12:50 AM32 °FClear.16 mph75%29.56 "Hg10 mi
11:50 PM
Tue, Mar 3
32 °FClear.15 mph80%29.56 "Hg10 mi
11:20 PM32 °FClear.14 mph80%29.56 "Hg10 mi
10:50 PM32 °FClear.14 mph80%29.56 "Hg10 mi
10:20 PM32 °FClear.13 mph80%29.53 "Hg10 mi
9:50 PM34 °FClear.13 mph75%29.53 "Hg10 mi
9:20 PM34 °FClear.9 mph75%29.53 "Hg10 mi
8:50 PM34 °FClear.13 mph75%29.53 "Hg10 mi
8:20 PM34 °FClear.12 mph75%29.53 "Hg10 mi
7:50 PM36 °FClear.13 mph70%29.53 "Hg10 mi
7:20 PM36 °FClear.12 mph70%29.50 "Hg10 mi
6:50 PM36 °FClear.10 mph75%29.50 "Hg10 mi
6:20 PM36 °FClear.9 mph75%29.50 "Hg10 mi
5:50 PM37 °FClear.7 mph70%29.50 "Hg10 mi
5:20 PM37 °FClear.8 mph70%29.50 "Hg10 mi
4:50 PM37 °FSunny.7 mph75%29.47 "Hg10 mi
4:20 PM39 °FSunny.9 mph70%29.47 "Hg10 mi
3:50 PM39 °FSunny.10 mph70%29.47 "Hg10 mi
3:20 PM39 °FSunny.9 mph75%29.47 "Hg10 mi
2:50 PM37 °FSunny.9 mph81%29.47 "Hg10 mi
2:20 PM39 °FScattered clouds.9 mph75%29.45 "HgN/A
1:50 PM39 °FScattered clouds.13 mph81%29.45 "HgN/A
1:20 PM39 °FScattered clouds.13 mph81%29.45 "HgN/A
12:50 PM37 °FScattered clouds.13 mph87%29.45 "HgN/A
12:20 PM37 °FScattered clouds.14 mph93%29.45 "HgN/A
Weather by CustomWeather, © 2015

See weather overviewHow to use our weather pages